K5OBH Weather Reports


time (UTC)temp
C
wind
direction
speed
KPH
gust
KPH
rain 1hr
cm
rain 24hr
cm
rain mn
cm
humidity
%
barometer
mb
20260507032704 12 357 1.6 1.6 0.00 0.00 0.00 66 1018.2
20260507032159 12 355 0.0 1.6 0.00 0.00 0.00 67 1018.1
20260507031657 12 347 0.0 1.6 0.00 0.00 0.00 66 1018.1
20260507031153 12 349 0.0 0.0 0.00 0.00 0.00 65 1018.0
20260507030650 13 0 0.0 1.6 0.00 0.00 0.00 63 1017.9
20260507030148 13 6 1.6 3.2 0.00 0.00 0.00 62 1017.8
20260507025645 13 0 0.0 0.0 0.00 0.00 0.00 60 1018.0
20260507025142 13 349 1.6 4.8 0.00 0.00 0.00 59 1017.9
20260507024640 13 12 0.0 4.8 0.00 0.00 0.00 58 1017.6
20260507024137 14 14 1.6 3.2 0.00 0.00 0.00 58 1017.6
20260507023632 14 20 1.6 3.2 0.00 0.00 0.00 58 1017.4
20260507023130 14 38 4.8 8.0 0.00 0.00 0.00 58 1017.5
20260507022626 14 28 3.2 9.7 0.00 0.00 0.00 59 1017.4
20260507022122 14 356 1.6 4.8 0.00 0.00 0.00 59 1017.5
20260507021619 14 7 4.8 4.8 0.00 0.00 0.00 59 1017.5
20260507021114 14 16 3.2 3.2 0.00 0.00 0.00 60 1017.2
20260507020613 14 5 1.6 4.8 0.00 0.00 0.00 59 1017.2
20260507020109 15 352 3.2 4.8 0.00 0.00 0.00 57 1017.3
20260507015607 15 355 4.8 9.7 0.00 0.00 0.00 58 1017.0
20260507015104 15 349 1.6 8.0 0.00 0.00 0.00 57 1017.0
20260507014601 15 352 3.2 8.0 0.00 0.00 0.00 57 1017.0
20260507014056 15 19 6.4 12.9 0.00 0.00 0.00 56 1016.9
20260507013553 15 52 4.8 8.0 0.00 0.00 0.00 57 1016.8
20260507013051 15 15 4.8 9.7 0.00 0.00 0.00 56 1016.6
20260507012548 15 355 6.4 9.7 0.00 0.00 0.00 56 1016.6
20260507012044 15 355 3.2 9.7 0.00 0.00 0.00 56 1016.7
20260507011542 15 339 4.8 8.0 0.00 0.00 0.00 55 1016.1
20260507011038 16 5 3.2 12.9 0.00 0.00 0.00 54 1016.1
20260507010532 16 61 6.4 12.9 0.00 0.00 0.00 54 1016.3
20260507010029 16 47 6.4 12.9 0.00 0.00 0.00 54 1016.1
20260507005526 16 30 4.8 12.9 0.00 0.00 0.00 54 1016.2
20260507005023 16 23 3.2 14.5 0.00 0.00 0.00 53 1016.2
20260507004520 16 29 9.7 12.9 0.00 0.00 0.00 53 1016.1
20260507004017 16 359 6.4 14.5 0.00 0.00 0.00 53 1016.2
20260507003512 16 357 6.4 9.7 0.00 0.00 0.00 53 1016.0
20260507003008 16 22 4.8 8.0 0.00 0.00 0.00 53 1016.2
20260507002504 17 24 8.0 14.5 0.00 0.00 0.00 52 1016.1
20260507002001 17 46 12.9 16.1 0.00 0.00 0.00 52 1016.0
20260507001457 17 347 8.0 16.1 0.00 0.00 0.00 52 1016.3
20260507000955 17 8 3.2 12.9 0.00 0.00 0.00 52 1016.0
20260507000450 17 354 8.0 14.5 0.00 0.00 0.00 52 1015.8
20260506235946 17 346 6.4 8.0 0.00 0.00 0.00 51 1016.0
20260506235444 17 3 8.0 12.9 0.00 0.00 0.00 51 1015.9
20260506234939 17 19 9.7 11.3 0.00 0.00 0.00 51 1015.9
20260506234437 17 0 4.8 12.9 0.00 0.00 0.00 51 1015.8
20260506233934 17 27 8.0 9.7 0.00 0.00 0.00 51 1015.8
20260506233431 17 37 6.4 9.7 0.00 0.00 0.00 51 1015.9
20260506232927 17 35 12.9 17.7 0.00 0.00 0.00 51 1015.7
20260506232424 17 330 8.0 12.9 0.00 0.00 0.00 50 1015.6
20260506231919 17 21 8.0 20.9 0.00 0.00 0.00 50 1015.5
20260506231417 17 9 4.8 12.9 0.00 0.00 0.00 51 1015.7
20260506230915 17 336 4.8 11.3 0.00 0.00 0.00 50 1015.4
20260506230411 18 332 3.2 12.9 0.00 0.00 0.00 52 1015.7
20260506225907 18 71 8.0 11.3 0.00 0.00 0.00 51 1015.4
20260506225405 18 11 4.8 9.7 0.00 0.00 0.00 50 1015.3
20260506224901 17 346 4.8 16.1 0.00 0.00 0.00 51 1015.6
20260506224359 18 24 4.8 12.9 0.00 0.00 0.00 52 1015.3
20260506223855 17 73 4.8 12.9 0.00 0.00 0.00 52 1015.3
20260506223350 17 347 6.4 14.5 0.00 0.00 0.00 52 1015.2
20260506222848 17 31 6.4 16.1 0.00 0.00 0.00 53 1015.3
20260506222343 18 331 3.2 14.5 0.00 0.00 0.00 53 1015.0
20260506221841 18 30 9.7 16.1 0.00 0.00 0.00 53 1014.8
20260506221339 18 350 6.4 14.5 0.00 0.00 0.00 53 1015.0
20260506220836 17 334 9.7 14.5 0.00 0.00 0.00 53 1015.0
20260506220331 17 70 4.8 14.5 0.00 0.00 0.00 54 1015.4
20260506215828 17 6 4.8 16.1 0.00 0.00 0.00 54 1015.1
20260506215324 17 57 4.8 16.1 0.00 0.00 0.00 54 1015.1
20260506214820 17 41 4.8 11.3 0.00 0.00 0.00 54 1015.3
20260506214317 17 69 3.2 11.3 0.00 0.00 0.00 55 1015.3
20260506213816 17 52 8.0 14.5 0.00 0.00 0.00 54 1015.2
20260506213312 17 10 9.7 20.9 0.00 0.00 0.00 55 1015.1
20260506212810 17 25 9.7 17.7 0.00 0.00 0.00 54 1015.4
20260506212307 17 42 4.8 17.7 0.00 0.00 0.00 54 1015.5
20260506211800 17 66 12.9 20.9 0.00 0.00 0.00 53 1015.5
20260506211257 16 48 4.8 9.7 0.00 0.00 0.00 56 1015.5
20260506210754 16 30 4.8 20.9 0.00 0.00 0.00 56 1015.8
20260506210251 17 7 6.4 11.3 0.00 0.00 0.00 55 1015.5
20260506205748 17 59 8.0 12.9 0.00 0.00 0.00 55 1015.6
20260506205244 17 357 11.3 12.9 0.00 0.00 0.00 56 1015.7
20260506204741 17 347 3.2 12.9 0.00 0.00 0.00 56 1015.5
20260506204238 16 29 6.4 12.9 0.00 0.00 0.00 57 1015.7
20260506203736 17 31 6.4 12.9 0.00 0.00 0.00 55 1015.9
20260506203233 16 11 8.0 11.3 0.00 0.00 0.00 55 1015.7
20260506202730 16 12 6.4 16.1 0.00 0.00 0.00 58 1015.9
20260506202226 16 356 14.5 17.7 0.00 0.00 0.00 56 1015.6
20260506201723 17 36 11.3 17.7 0.00 0.00 0.00 56 1015.9
20260506201220 17 25 1.6 20.9 0.00 0.00 0.00 58 1015.8
20260506200717 16 353 8.0 14.5 0.00 0.00 0.00 56 1015.9
20260506200214 16 342 6.4 22.5 0.00 0.00 0.00 57 1015.8
20260506195710 16 17 12.9 29.0 0.00 0.00 0.00 55 1015.8
20260506195207 16 55 3.2 20.9 0.00 0.00 0.00 56 1015.7
20260506194704 17 21 6.4 16.1 0.00 0.00 0.00 56 1015.7
20260506194201 16 359 16.1 20.9 0.00 0.00 0.00 55 1015.8
20260506193658 17 25 8.0 24.1 0.00 0.00 0.00 56 1015.8
20260506193155 17 22 8.0 14.5 0.00 0.00 0.00 56 1015.8
20260506192652 16 17 8.0 22.5 0.00 0.00 0.00 56 1015.8
20260506192148 17 40 6.4 22.5 0.00 0.00 0.00 56 1016.2
20260506191645 17 353 4.8 16.1 0.00 0.00 0.00 56 1016.0
20260506191141 16 10 12.9 17.7 0.00 0.00 0.00 55 1016.1
20260506190639 17 13 6.4 12.9 0.00 0.00 0.00 55 1016.0
20260506190135 16 32 11.3 22.5 0.00 0.00 0.00 55 1016.1
20260506185632 16 341 8.0 22.5 0.00 0.00 0.00 57 1015.9
20260506185128 16 356 12.9 14.5 0.00 0.00 0.00 56 1016.0
20260506184626 17 36 8.0 16.1 0.00 0.00 0.00 55 1016.2
20260506184123 16 61 11.3 17.7 0.00 0.00 0.00 55 1016.2
20260506183620 16 335 9.7 11.3 0.00 0.00 0.00 57 1015.9
20260506183116 16 30 9.7 14.5 0.00 0.00 0.00 55 1016.4
20260506182614 16 123 6.4 17.7 0.00 0.00 0.00 57 1016.2
20260506182110 15 45 3.2 12.9 0.00 0.00 0.00 57 1016.2
20260506181608 16 50 8.0 14.5 0.00 0.00 0.00 56 1016.3
20260506181105 15 20 4.8 17.7 0.00 0.00 0.00 58 1016.7
20260506180602 16 41 9.7 20.9 0.00 0.00 0.00 57 1016.6
20260506180058 15 49 4.8 16.1 0.00 0.00 0.00 57 1016.2
20260506175554 15 25 11.3 20.9 0.00 0.00 0.00 56 1016.8
20260506175051 15 48 8.0 17.7 0.00 0.00 0.00 57 1017.0
20260506174550 15 94 11.3 16.1 0.00 0.00 0.00 57 1017.1
20260506174045 16 342 9.7 17.7 0.00 0.00 0.00 56 1016.9
20260506173543 15 69 8.0 17.7 0.00 0.00 0.00 59 1016.9
20260506173040 15 66 9.7 16.1 0.00 0.00 0.00 62 1017.3
20260506172537 14 359 4.8 17.7 0.00 0.00 0.00 62 1017.1
20260506172033 14 42 9.7 14.5 0.00 0.00 0.00 61 1017.3
20260506171531 15 47 14.5 17.7 0.00 0.00 0.00 59 1017.3
20260506171028 14 78 11.3 20.9 0.00 0.00 0.00 60 1017.2
20260506170526 13 9 6.4 20.9 0.00 0.00 0.00 62 1017.0
20260506170018 15 321 9.7 17.7 0.00 0.00 0.00 61 1017.1
20260506165516 13 46 11.3 16.1 0.00 0.00 0.00 62 1017.1
20260506165011 13 42 4.8 12.9 0.00 0.00 0.00 63 1017.0
20260506164508 13 82 4.8 16.1 0.00 0.00 0.00 64 1017.2
20260506164006 13 59 11.3 17.7 0.00 0.00 0.00 65 1017.2
20260506163501 13 94 8.0 17.7 0.00 0.00 0.00 64 1017.4
20260506162956 12 58 6.4 14.5 0.00 0.00 0.00 67 1017.3
20260506162454 12 288 8.0 17.7 0.00 0.00 0.00 67 1017.4
20260506161951 12 73 4.8 17.7 0.00 0.00 0.00 67 1017.1
20260506161449 12 87 8.0 20.9 0.00 0.00 0.00 66 1017.4
20260506160941 12 83 8.0 16.1 0.00 0.00 0.00 67 1017.3
20260506160438 12 29 3.2 12.9 0.00 0.00 0.00 69 1017.5
20260506155935 12 35 8.0 17.7 0.00 0.00 0.00 69 1017.2
20260506155434 11 296 8.0 14.5 0.00 0.00 0.00 70 1017.3
20260506153605 11 79 9.7 17.7 0.00 0.00 0.00 73 1017.3
20260506153102 11 6 6.4 16.1 0.00 0.00 0.00 73 1017.3
20260506152559 11 0 6.4 17.7 0.00 0.00 0.00 73 1016.9
20260506152057 11 44 9.7 14.5 0.00 0.00 0.00 73 1016.9
20260506151555 11 35 9.7 16.1 0.00 0.00 0.00 73 1017.0
20260506151052 11 19 12.9 22.5 0.00 0.00 0.00 73 1016.8
20260506150548 11 11 6.4 17.7 0.00 0.00 0.00 73 1016.7
20260506150045 11 340 4.8 14.5 0.00 0.00 0.00 73 1016.7
20260506145542 11 328 8.0 16.1 0.00 0.00 0.00 74 1016.6
20260506145039 10 318 11.3 22.5 0.00 0.00 0.00 75 1016.3
20260506144536 10 324 4.8 17.7 0.00 0.00 0.00 75 1016.1
20260506144033 10 53 6.4 17.7 0.00 0.00 0.00 76 1016.1
20260506143531 10 41 6.4 22.5 0.00 0.00 0.00 77 1016.1
20260506143029 10 335 14.5 25.7 0.00 0.00 0.00 77 1016.0
20260506142526 10 1 11.3 24.1 0.00 0.00 0.00 77 1015.9
20260506142024 10 343 9.7 22.5 0.00 0.00 0.00 77 1015.9
20260506141522 10 16 8.0 22.5 0.00 0.00 0.00 78 1015.8
20260506141020 10 41 9.7 16.1 0.00 0.00 0.00 78 1016.0
20260506140517 10 84 12.9 22.5 0.00 0.00 0.00 78 1016.1
20260506140014 10 47 9.7 22.5 0.00 0.00 0.00 79 1016.0
20260506135511 10 51 14.5 20.9 0.00 0.00 0.00 79 1016.2
20260506135007 10 6 11.3 20.9 0.00 0.00 0.00 80 1016.0
20260506134503 10 42 6.4 12.9 0.00 0.00 0.00 81 1016.0
20260506134000 10 9 8.0 17.7 0.00 0.00 0.00 80 1016.2
20260506133457 10 42 12.9 20.9 0.00 0.00 0.00 80 1016.1
20260506132954 10 44 11.3 22.5 0.00 0.00 0.00 80 1016.3
20260506132451 10 53 8.0 25.7 0.00 0.00 0.00 79 1016.4
20260506131948 10 56 8.0 17.7 0.00 0.00 0.00 79 1016.2
20260506131445 10 0 9.7 17.7 0.00 0.00 0.00 80 1016.3
20260506130942 9 6 12.9 25.7 0.00 0.00 0.00 81 1016.3
20260506130438 10 52 12.9 24.1 0.00 0.00 0.00 81 1016.6
20260506125936 9 5 8.0 20.9 0.00 0.00 0.00 82 1016.3
20260506125434 9 23 11.3 20.9 0.00 0.00 0.00 82 1016.0
20260506124932 9 26 8.0 17.7 0.00 0.00 0.00 82 1016.1
20260506124429 9 336 6.4 17.7 0.00 0.00 0.00 82 1016.0
20260506123927 9 50 14.5 16.1 0.00 0.00 0.00 83 1016.0
20260506123425 9 38 11.3 16.1 0.00 0.00 0.00 83 1015.8
20260506122922 9 28 9.7 16.1 0.00 0.00 0.00 84 1016.0
20260506122419 9 23 8.0 16.1 0.00 0.00 0.00 84 1015.8
20260506121918 9 334 9.7 24.1 0.00 0.00 0.00 84 1015.3
20260506121414 8 13 4.8 20.9 0.00 0.00 0.00 84 1015.0
20260506120911 8 38 6.4 17.7 0.00 0.00 0.00 84 1014.9
20260506120409 8 5 6.4 9.7 0.00 0.00 0.00 85 1015.0
20260506115906 8 356 6.4 12.9 0.00 0.00 0.00 84 1015.0
20260506115404 8 21 12.9 16.1 0.00 0.00 0.00 84 1014.9
20260506114902 8 26 11.3 16.1 0.00 0.00 0.00 83 1014.8
20260506114359 8 350 12.9 16.1 0.00 0.00 0.00 83 1014.9
20260506113858 8 357 11.3 22.5 0.00 0.00 0.00 83 1014.8
20260506113355 8 19 9.7 17.7 0.00 0.00 0.00 83 1015.0
20260506112851 8 2 4.8 12.9 0.00 0.00 0.00 83 1014.8
20260506112348 8 13 4.8 9.7 0.00 0.00 0.00 83 1014.6
20260506111846 8 350 11.3 16.1 0.00 0.00 0.00 83 1014.5
20260506111344 8 2 6.4 11.3 0.00 0.00 0.00 83 1014.6
20260506110841 8 32 4.8 14.5 0.00 0.00 0.00 83 1014.4
20260506110338 8 345 8.0 16.1 0.00 0.00 0.00 82 1014.4
20260506105835 8 26 11.3 20.9 0.00 0.00 0.00 82 1014.5
20260506105331 8 26 8.0 11.3 0.00 0.00 0.00 83 1014.2
20260506104829 8 57 8.0 14.5 0.00 0.00 0.00 82 1015.0
20260506104326 8 344 8.0 11.3 0.00 0.00 0.00 82 1015.2
20260506103824 8 25 8.0 16.1 0.00 0.00 0.00 82 1015.2
20260506103321 8 289 11.3 17.7 0.00 0.00 0.00 81 1015.0
20260506102819 8 30 11.3 14.5 0.00 0.00 0.00 81 1015.0
20260506102316 9 350 9.7 16.1 0.00 0.00 0.00 81 1015.1
20260506101814 8 333 8.0 17.7 0.00 0.00 0.00 81 1014.8
20260506101309 9 355 4.8 11.3 0.00 0.00 0.00 80 1014.8
20260506100808 9 28 14.5 17.7 0.00 0.00 0.00 80 1015.0
20260506100305 9 23 9.7 12.9 0.00 0.00 0.00 79 1015.1
20260506095804 9 9 4.8 11.3 0.00 0.00 0.00 80 1014.8
20260506095300 8 18 4.8 14.5 0.00 0.00 0.00 79 1015.0
20260506094757 8 28 6.4 14.5 0.00 0.00 0.00 79 1014.7
20260506094255 9 356 6.4 14.5 0.00 0.00 0.00 78 1014.8
20260506093753 9 355 6.4 8.0 0.00 0.00 0.00 78 1014.8
20260506093250 9 35 8.0 12.9 0.00 0.00 0.00 78 1014.6
20260506092749 9 0 1.6 12.9 0.00 0.00 0.00 78 1014.3
20260506092246 9 330 8.0 17.7 0.00 0.00 0.00 77 1014.4
20260506091743 9 358 8.0 12.9 0.00 0.00 0.00 77 1014.3
20260506091240 9 22 1.6 8.0 0.00 0.00 0.00 77 1014.1
20260506090738 9 13 4.8 9.7 0.00 0.00 0.00 77 1014.0
20260506090235 9 21 8.0 11.3 0.00 0.00 0.00 76 1014.2
20260506085732 9 16 11.3 14.5 0.00 0.00 0.00 76 1014.3
20260506085228 9 49 3.2 14.5 0.00 0.00 0.00 76 1014.1
20260506084725 9 42 9.7 16.1 0.00 0.00 0.00 76 1013.7
20260506084221 9 53 8.0 12.9 0.00 0.00 0.00 76 1013.7
20260506083718 9 22 8.0 16.1 0.00 0.00 0.00 76 1013.6
20260506083216 9 325 6.4 17.7 0.00 0.00 0.00 75 1013.6
20260506082713 9 14 6.4 14.5 0.00 0.00 0.00 75 1013.6
20260506082208 9 44 9.7 16.1 0.00 0.00 0.00 74 1013.0
20260506081706 9 355 11.3 12.9 0.00 0.00 0.00 74 1013.0
20260506081204 9 23 6.4 12.9 0.00 0.00 0.00 74 1013.0
20260506080701 9 10 11.3 14.5 0.00 0.00 0.00 75 1013.2
20260506080157 9 349 4.8 14.5 0.00 0.00 0.00 74 1012.9
20260506073142 10 72 4.8 16.1 0.00 0.00 0.00 73 1012.3
20260506072638 10 355 8.0 16.1 0.00 0.00 0.00 73 1012.2
20260506072136 10 35 9.7 17.7 0.00 0.00 0.00 72 1012.4
20260506071633 10 65 6.4 12.9 0.00 0.00 0.00 73 1012.6
20260506071131 10 42 9.7 14.5 0.00 0.00 0.00 73 1012.2
20260506070628 10 13 8.0 12.9 0.00 0.00 0.00 73 1012.5
20260506070125 10 2 4.8 11.3 0.00 0.00 0.00 73 1012.5
20260506062103 10 60 12.9 22.5 0.00 0.00 0.00 71 1012.4
20260506061558 10 8 4.8 17.7 0.00 0.00 0.00 71 1012.3
20260506061056 10 97 17.7 27.4 0.00 0.00 0.00 69 1012.7
20260506060554 10 7 8.0 14.5 0.00 0.00 0.00 69 1012.7
20260506051023 10 72 11.3 16.1 0.00 0.00 0.00 75 1012.4
20260506050521 10 47 6.4 12.9 0.00 0.00 0.00 75 1012.4
20260506045011 10 352 9.7 22.5 0.00 0.00 0.00 77 1012.0
20260506044509 10 44 6.4 27.4 0.00 0.00 0.00 77 1012.1
20260506044005 10 57 11.3 17.7 0.00 0.00 0.00 78 1012.4
20260506043503 10 46 4.8 17.7 0.00 0.00 0.00 78 1012.6
20260506043001 10 2 8.0 17.7 0.00 0.00 0.00 79 1012.4
20260506042500 10 349 12.9 20.9 0.00 0.00 0.00 80 1012.7
20260506041957 10 73 11.3 22.5 0.00 0.00 0.00 80 1012.9
20260506041455 10 63 3.2 12.9 0.00 0.00 0.00 81 1012.7
20260506040952 10 26 8.0 14.5 0.00 0.00 0.00 81 1012.6
20260506040450 10 341 11.3 17.7 0.00 0.00 0.00 81 1012.4
20260506035946 10 66 9.7 16.1 0.00 0.00 0.00 81 1012.6
20260506035443 10 32 12.9 17.7 0.00 0.00 0.00 81 1012.6
20260506034939 10 351 16.1 25.7 0.00 0.00 0.00 81 1012.3
20260506034438 10 55 11.3 16.1 0.00 0.00 0.00 81 1012.6
20260506033934 10 22 11.3 20.9 0.00 0.00 0.00 81 1012.4
20260506033432 10 97 11.3 32.2 0.00 0.00 0.00 82 1012.2
20260506032928 10 9 12.9 22.5 0.00 0.00 0.00 83 1012.1